Weather History for Adrar, Algeria

Change the Weather History Date:

Wednesday, February 13, 2013

  Actual Average Record
Temperature  
Mean Temperature 56 °F -  
Max Temperature 67 °F 79 °F - ()
Min Temperature 44 °F 48 °F - ()
Degree Days  
Heating Degree Days 10    
Growing Degree Days 6 (Base 50)    
Moisture  
Dew Point 25 °F    
Average Humidity 33    
Maximum Humidity 81    
Minimum Humidity 5    
Precipitation  
Precipitation 0.00 in 0.00 in - ()
Sea Level Pressure  
Sea Level Pressure 30.13 in    
Wind  
Wind Speed 14 mph ()    
Max Wind Speed 36 mph    
Max Gust Speed -    
Visibility 5.6 miles    
Events      
T = Trace of Precipitation, MM = Missing Value Source: Averaged Metar Reports

Daily Weather History Graph

Daily Weather History Graph

Search for Another Location

Airport:

Trip Planner

Search our weather history database for the weather conditions in past years. The results will help you decide how hot, cold, wet, or windy it might be!

Date:

Astronomy

Feb. 13, 2013 Rise Set
Actual Time 7:39 AM CET 6:50 PM CET
Civil Twilight 7:15 AM CET 7:14 PM CET
Nautical Twilight 6:48 AM CET 7:42 PM CET
Astronomical Twilight 6:20 AM CET 8:09 PM CET
Moon 9:23 AM CET (2/13) 10:12 PM CET (2/13)
Length of Visible Light 11h 58m
Length of Day
11h 10m
Waxing Crescent, 12% of the Moon is Illuminated
Feb 13
Waxing Crescent
Feb 17
First Quarter
Feb 25
Full
Mar 4
Last Quarter
Mar 11
New

Hourly Weather History & Observations

Time (CET) Temp. Windchill Dew Point Humidity Pressure Visibility Wind Dir Wind Speed Gust Speed Precip Events Conditions
1:00 AM 48 °F - 23 °F 25% 30.04 in 6 mi ESE 11.5 mph - -  
1:00 AM 48.2 °F - 23.0 °F 37% 30.04 in - ESE 11.5 mph - N/A   Clear
2:00 AM 48.2 °F - 21.2 °F 34% 30.04 in - NE 9.2 mph - N/A   Clear
3:00 AM 48.2 °F - 23.0 °F 37% 30.09 in 3.7 mi NNE 19.6 mph - N/A   Unknown
4:00 AM 47 °F - 24 °F 28% 30.12 in 4 mi NE 25.3 mph - -   Blowing Sand
7:00 AM 46 °F - 39 °F 70% 30.13 in 6 mi ENE 35.7 mph - -  
7:00 AM 46.4 °F 40.1 °F 39.2 °F 76% 30.12 in 5.6 mi ENE 15.0 mph - N/A   Unknown
8:00 AM 44.6 °F 38.4 °F 39.2 °F 81% 30.15 in - ENE 12.7 mph - N/A   Clear
9:00 AM 46.4 °F 39.8 °F 39.2 °F 76% 30.18 in - NE 16.1 mph - N/A   Clear
10:00 AM 50 °F - 36 °F 47% 30.20 in 6 mi NE 18.4 mph - -  
10:00 AM 50.0 °F - 35.6 °F 58% 30.18 in - NE 18.4 mph - N/A   Clear
11:00 AM 55.4 °F - 32.0 °F 41% 30.21 in 5.6 mi NE 25.3 mph - N/A   Low Drifting Sand
12:00 PM 59.0 °F - 32.0 °F 36% 30.21 in 5.6 mi ENE 23.0 mph - N/A   Low Drifting Sand
1:00 PM 62 °F - 32 °F 21% 30.20 in 6 mi ENE 20.7 mph - -   Blowing Sand
1:00 PM 62.6 °F - 32.0 °F 32% 30.18 in 5.6 mi ENE 20.7 mph - N/A   Low Drifting Sand
2:00 PM 64.4 °F - 37.4 °F 37% 30.15 in 5.6 mi NE 16.1 mph - N/A   Unknown
3:00 PM 66.2 °F - 41.0 °F 40% 30.12 in 5.6 mi NE 12.7 mph - N/A   Unknown
4:00 PM 67 °F - 22 °F 9% 30.13 in 6 mi NE 6.9 mph - -  
4:00 PM 66.2 °F - 21.2 °F 18% 30.12 in - NE 6.9 mph - N/A   Clear
5:00 PM 68.0 °F - 19.4 °F 16% 30.09 in - NNE 12.7 mph - N/A   Clear
6:00 PM 66.2 °F - 12.2 °F 12% 30.09 in - North 9.2 mph - N/A   Clear
7:00 PM 64 °F - 10 °F 5% 30.14 in 6 mi North 9.2 mph - -  
7:00 PM 64.4 °F - 10.4 °F 12% 30.12 in - North 9.2 mph - N/A   Clear
8:00 PM 59.0 °F - 8.6 °F 14% 30.12 in - North 11.5 mph - N/A   Clear
9:00 PM 53.6 °F - 10.4 °F 18% 30.12 in - North 11.5 mph - N/A   Clear
10:00 PM 52 °F - 12 °F 10% 30.17 in 6 mi North 11.5 mph - -  
10:00 PM 51.8 °F - 12.2 °F 21% 30.15 in - North 11.5 mph - N/A   Clear
11:00 PM 50.0 °F - 12.2 °F 22% 30.15 in - NNE 11.5 mph - N/A   Clear